KQ7A Weather Reports


Display with metric or nautical units.
time (UTC)temp
F
wind
direction
speed
MPH
gust
MPH
rain 1hr
in
rain 24hr
in
rain mn
in
humidity
%
barometer
mb
20260506005309 64 163 0.0 0.0 0.00 0.19 0.19 46 1014.0
20260506004805 65 139 0.0 1.0 0.00 0.19 0.19 48 1014.0
20260506004303 66 81 2.0 2.0 0.00 0.19 0.19 46 1014.1
20260506003759 65 167 0.0 0.0 0.00 0.19 0.19 43 1014.3
20260506003256 66 341 0.0 1.0 0.00 0.19 0.19 43 1013.9
20260506002751 67 241 2.0 2.0 0.00 0.19 0.19 40 1014.0
20260506002247 67 76 1.0 1.0 0.00 0.19 0.19 40 1014.0
20260506001743 66 151 0.0 1.0 0.00 0.19 0.19 43 1013.9
20260506001241 66 308 1.0 2.0 0.00 0.19 0.19 40 1014.3
20260506000738 66 312 2.0 2.0 0.00 0.19 0.19 46 1014.0
20260506000235 66 216 2.0 3.0 0.00 0.19 0.19 44 1013.9
20260505235732 65 343 1.0 1.0 0.00 0.19 0.19 48 1014.1
20260505235230 65 349 2.0 2.0 0.00 0.19 0.19 43 1014.0
20260505234726 65 7 3.0 3.0 0.00 0.19 0.19 45 1014.1
20260505234224 65 46 1.0 2.0 0.00 0.19 0.19 44 1014.1
20260505233720 65 20 5.0 5.0 0.00 0.19 0.19 44 1014.0
20260505233219 65 209 3.0 6.0 0.00 0.19 0.19 46 1014.3
20260505232715 66 275 2.0 3.0 0.00 0.19 0.19 48 1014.3
20260505232213 66 342 1.0 2.0 0.00 0.19 0.19 47 1014.3
20260505231709 65 332 2.0 2.0 0.00 0.19 0.19 46 1014.1
20260505231208 64 258 1.0 2.0 0.00 0.19 0.19 45 1014.3
20260505230706 65 260 1.0 1.0 0.00 0.19 0.19 48 1014.5
20260505230202 65 44 3.0 3.0 0.00 0.19 0.19 47 1014.4
20260505225659 65 357 2.0 3.0 0.00 0.19 0.19 53 1014.7
20260505225156 64 28 4.0 6.0 0.00 0.19 0.19 50 1014.6
20260505224651 64 12 5.0 6.0 0.00 0.19 0.19 47 1014.6
20260505224149 64 7 1.0 3.0 0.00 0.19 0.19 57 1014.4
20260505223646 64 278 2.0 2.0 0.00 0.19 0.19 49 1014.5
20260505223142 64 313 2.0 3.0 0.00 0.19 0.19 49 1014.6
20260505222633 63 66 2.0 2.0 0.00 0.19 0.19 54 1014.7
20260505222129 64 63 1.0 1.0 0.00 0.19 0.19 50 1014.6
20260505221626 63 245 1.0 1.0 0.00 0.19 0.19 48 1014.7
20260505221123 62 73 3.0 3.0 0.00 0.19 0.19 54 1014.7
20260505220621 62 355 3.0 3.0 0.00 0.19 0.19 51 1014.8
20260505220118 61 25 3.0 5.0 0.00 0.19 0.19 56 1014.7
20260505215616 62 50 4.0 6.0 0.00 0.19 0.19 57 1014.6
20260505215113 62 45 2.0 2.0 0.00 0.19 0.19 56 1015.0
20260505214611 62 53 2.0 3.0 0.00 0.19 0.19 56 1015.2
20260505214108 62 0 4.0 7.0 0.00 0.19 0.19 55 1014.8
20260505213606 61 342 2.0 3.0 0.00 0.19 0.19 61 1015.0
20260505213102 61 2 4.0 5.0 0.00 0.19 0.19 55 1015.2
20260505212558 61 74 4.0 5.0 0.00 0.19 0.19 62 1015.2
20260505212056 60 129 2.0 3.0 0.00 0.19 0.19 60 1015.2
20260505211553 60 68 3.0 3.0 0.00 0.19 0.19 59 1015.3
20260505211050 59 74 2.0 3.0 0.00 0.19 0.19 68 1015.5
20260505210546 58 67 3.0 5.0 0.00 0.19 0.19 62 1015.4
20260505210044 60 97 6.0 7.0 0.00 0.19 0.19 62 1015.4
20260505205541 60 16 1.0 2.0 0.00 0.19 0.19 61 1015.3
20260505205038 59 91 1.0 1.0 0.00 0.19 0.19 71 1015.4
20260505204536 59 359 0.0 1.0 0.00 0.19 0.19 60 1015.4
20260505204033 58 12 3.0 3.0 0.00 0.19 0.19 68 1015.6
20260505203529 57 111 3.0 3.0 0.00 0.19 0.19 68 1015.6
20260505203027 57 73 3.0 6.0 0.00 0.19 0.19 67 1015.9
20260505202523 57 5 3.0 3.0 0.00 0.19 0.19 67 1015.6
20260505202018 57 345 4.0 6.0 0.00 0.19 0.19 72 1015.5
20260505201516 55 88 3.0 3.0 0.00 0.19 0.19 72 1015.8
20260505201013 56 9 1.0 2.0 0.00 0.19 0.19 75 1015.9
20260505200511 56 20 2.0 2.0 0.00 0.19 0.19 72 1015.9
20260505200008 55 292 1.0 1.0 0.00 0.19 0.19 75 1016.1
20260505195504 54 167 1.0 2.0 0.00 0.19 0.19 76 1016.0
20260505195001 54 136 1.0 2.0 0.00 0.19 0.19 75 1016.0
20260505194459 53 149 2.0 3.0 0.00 0.19 0.19 76 1015.8
20260505193958 53 111 4.0 5.0 0.00 0.19 0.19 78 1015.9
20260505193456 52 87 0.0 0.0 0.00 0.19 0.19 78 1016.0
20260505192953 51 172 1.0 2.0 0.00 0.19 0.19 79 1015.8
20260505192452 52 114 1.0 1.0 0.00 0.19 0.19 81 1015.9
20260505191949 52 99 1.0 1.0 0.00 0.19 0.19 81 1015.8
20260505191448 51 129 4.0 5.0 0.00 0.19 0.19 80 1016.0
20260505190944 51 92 0.0 1.0 0.00 0.19 0.19 80 1015.8
20260505190439 51 121 2.0 2.0 0.00 0.19 0.19 82 1015.6
20260505185935 51 173 3.0 3.0 0.00 0.19 0.19 79 1015.6
20260505185433 51 229 0.0 0.0 0.00 0.19 0.19 78 1016.0
20260505184929 50 262 0.0 0.0 0.00 0.19 0.19 80 1015.9
20260505184426 49 274 0.0 0.0 0.00 0.19 0.19 81 1016.0
20260505183922 49 285 0.0 0.0 0.00 0.19 0.19 82 1016.0
20260505183419 48 308 0.0 0.0 0.00 0.19 0.19 83 1016.1
20260505182916 48 312 0.0 0.0 0.00 0.19 0.19 83 1016.0
20260505182413 48 14 0.0 0.0 0.00 0.19 0.19 82 1015.8
20260505181909 48 3 0.0 0.0 0.00 0.19 0.19 84 1015.8
20260505181407 48 349 0.0 0.0 0.00 0.19 0.19 84 1015.9
20260505180903 48 44 0.0 0.0 0.00 0.19 0.19 86 1015.6
20260505180400 48 356 1.0 2.0 0.00 0.19 0.19 84 1015.5
20260505175856 48 305 0.0 0.0 0.00 0.19 0.19 85 1015.6
20260505175353 48 247 0.0 0.0 0.00 0.19 0.19 85 1015.5
20260505174849 48 237 0.0 0.0 0.00 0.19 0.19 85 1015.6
20260505174347 48 286 1.0 1.0 0.00 0.19 0.19 83 1015.2
20260505173843 48 224 0.0 0.0 0.00 0.19 0.19 84 1015.2
20260505173339 48 224 0.0 0.0 0.00 0.19 0.19 85 1015.0
20260505172836 48 224 0.0 0.0 0.00 0.19 0.19 87 1015.3
20260505172334 48 230 0.0 0.0 0.00 0.19 0.19 86 1015.1
20260505171834 48 227 0.0 0.0 0.00 0.19 0.19 88 1015.2
20260505171331 48 233 1.0 1.0 0.00 0.19 0.19 89 1014.7
20260505170827 47 170 0.0 0.0 0.00 0.19 0.19 90 1014.8
20260505170324 47 259 0.0 0.0 0.00 0.19 0.19 91 1015.0
20260505165819 47 241 0.0 1.0 0.00 0.19 0.19 92 1014.5
20260505165315 46 289 3.0 3.0 0.00 0.19 0.19 91 1014.7
20260505164811 46 277 3.0 3.0 0.00 0.19 0.19 92 1014.8
20260505164308 46 268 2.0 2.0 0.00 0.19 0.19 91 1014.7
20260505163806 46 270 1.0 2.0 0.00 0.19 0.19 90 1014.7
20260505163305 46 265 2.0 2.0 0.00 0.19 0.19 90 1014.7
20260505162803 46 261 2.0 2.0 0.00 0.19 0.19 89 1014.5
20260505162259 46 234 0.0 0.0 0.00 0.19 0.19 91 1014.6
20260505161756 46 226 0.0 0.0 0.00 0.19 0.19 91 1014.1
20260505161253 46 246 0.0 0.0 0.00 0.19 0.19 91 1014.3
20260505160750 45 248 0.0 0.0 0.00 0.19 0.19 91 1014.0
20260505160248 45 255 0.0 0.0 0.00 0.19 0.19 92 1013.9
20260505153227 44 157 1.0 1.0 0.00 0.19 0.19 96 1013.8
20260505152724 44 277 0.0 0.0 0.00 0.19 0.19 96 1013.9
20260505152221 44 278 1.0 1.0 0.00 0.19 0.19 96 1013.8
20260505151715 44 247 0.0 0.0 0.00 0.19 0.19 96 1014.0
20260505151213 44 247 0.0 0.0 0.00 0.19 0.19 96 1014.0
20260505150709 44 248 0.0 0.0 0.00 0.19 0.19 96 1014.1
20260505150206 44 249 0.0 0.0 0.00 0.19 0.19 96 1014.0
20260505140639 44 154 0.0 0.0 0.00 0.19 0.19 97 1013.7
20260505140136 44 155 0.0 0.0 0.00 0.19 0.19 97 1013.6
20260505124550 43 174 0.0 0.0 0.00 0.19 0.19 97 1012.3
20260505124046 43 148 0.0 0.0 0.00 0.19 0.19 98 1012.3
20260505123542 43 220 0.0 0.0 0.00 0.19 0.19 97 1012.3
20260505123039 43 221 0.0 0.0 0.00 0.19 0.19 97 1012.4
20260505122536 43 221 0.0 0.0 0.00 0.19 0.19 97 1012.1
20260505122033 43 221 0.0 0.0 0.00 0.19 0.19 97 1012.3
20260505121529 43 280 0.0 0.0 0.05 0.19 0.19 97 1012.0
20260505121026 43 219 0.0 0.0 0.05 0.19 0.19 97 1012.0
20260505120522 43 249 0.0 0.0 0.00 0.18 0.18 97 1012.1
20260505120018 43 243 0.0 0.0 0.07 0.18 0.18 97 1012.1
20260505115513 43 230 0.0 0.0 0.07 0.18 0.18 97 1012.1
20260505115011 43 230 0.0 0.0 0.00 0.17 0.17 97 1012.1
20260505114508 43 226 0.0 0.0 0.05 0.17 0.17 97 1012.1
20260505114004 43 267 0.0 0.0 0.05 0.17 0.17 97 1012.2
20260505113501 43 232 0.0 0.0 0.07 0.16 0.16 97 1012.2
20260505112956 43 230 0.0 0.0 0.07 0.16 0.16 97 1012.1
20260505112453 43 188 0.0 0.0 0.05 0.15 0.15 97 1012.1
20260505111950 43 126 0.0 0.0 0.05 0.15 0.15 97 1012.2
20260505111444 43 134 0.0 0.0 0.00 0.14 0.14 97 1012.0
20260505110941 43 115 0.0 0.0 0.07 0.14 0.14 97 1012.1
20260505110438 43 167 0.0 0.0 0.07 0.14 0.14 97 1012.3
20260505101909 43 162 0.0 0.0 0.05 0.09 0.09 97 1012.4
20260505101403 43 158 0.0 0.0 0.05 0.09 0.09 97 1012.4
20260505100859 43 139 0.0 0.0 0.07 0.08 0.08 97 1012.6
20260505100356 43 129 3.0 3.0 0.07 0.08 0.08 97 1012.8
20260505095852 43 123 2.0 2.0 0.07 0.07 0.07 97 1012.5
20260505095350 43 188 0.0 0.0 0.07 0.07 0.07 97 1012.6
20260505094845 43 206 0.0 0.0 0.05 0.06 0.06 97 1013.3
20260505094342 43 206 0.0 0.0 0.05 0.06 0.06 97 1013.1
20260505093838 43 205 0.0 0.0 0.07 0.05 0.05 97 1013.1
20260505093336 43 205 0.0 0.0 0.07 0.05 0.05 96 1012.5
20260505092833 43 221 0.0 0.0 0.05 0.04 0.04 96 1012.5
20260505092331 43 221 0.0 0.0 0.05 0.04 0.04 96 1012.4
20260505091828 43 223 0.0 0.0 0.07 0.03 0.03 96 1012.8
20260505091326 44 280 0.0 0.0 0.07 0.03 0.03 96 1013.1
20260505090824 44 273 0.0 0.0 0.00 0.02 0.02 96 1013.1
20260505090322 44 230 0.0 0.0 0.05 0.02 0.02 96 1013.1
20260505085818 44 176 0.0 0.0 0.05 0.02 0.02 96 1013.3
20260505085317 43 176 0.0 0.0 0.00 0.01 0.01 96 1013.2
20260505084814 43 176 0.0 0.0 0.00 0.01 0.01 96 1013.2
20260505084312 43 237 0.0 0.0 0.00 0.01 0.01 96 1013.0
20260505083809 43 237 0.0 0.0 0.00 0.01 0.01 96 1012.9
20260505083306 43 153 0.0 0.0 0.00 0.01 0.01 96 1013.1
20260505082803 43 146 0.0 0.0 0.00 0.01 0.01 96 1012.9
20260505082259 44 189 0.0 0.0 0.07 0.01 0.01 96 1012.8
20260505081755 43 164 1.0 2.0 0.07 0.01 0.01 96 1012.8
20260505081252 44 169 0.0 0.0 0.00 0.00 0.00 96 1013.0
20260505080749 44 200 0.0 0.0 0.00 0.00 0.00 96 1013.0
20260505080245 44 163 0.0 0.0 0.00 0.00 0.00 96 1013.3
20260505075740 44 159 0.0 0.0 0.00 0.14 0.14 96 1013.6
20260505075238 44 229 0.0 0.0 0.00 0.14 0.14 96 1013.5
20260505074735 44 236 0.0 0.0 0.00 0.14 0.14 96 1013.3
20260505074232 44 259 1.0 1.0 0.00 0.14 0.14 96 1013.5
20260505073730 44 259 0.0 1.0 0.00 0.14 0.14 96 1013.5
20260505073227 44 288 0.0 1.0 0.00 0.14 0.14 96 1013.3
20260505072724 44 286 0.0 0.0 0.00 0.14 0.14 96 1013.5
20260505072220 44 288 1.0 1.0 0.00 0.14 0.14 96 1013.2
20260505071716 44 284 2.0 2.0 0.00 0.14 0.14 96 1013.2
20260505071213 44 262 0.0 0.0 0.00 0.14 0.14 96 1013.1
20260505070710 44 262 0.0 0.0 0.00 0.14 0.14 96 1013.2
20260505070206 44 263 0.0 1.0 0.00 0.14 0.14 96 1012.9
20260505065703 44 254 0.0 0.0 0.00 0.14 0.14 96 1013.3
20260505065200 44 254 0.0 0.0 0.00 0.14 0.14 96 1013.1
20260505064656 44 252 0.0 0.0 0.00 0.14 0.14 96 1013.1
20260505064155 44 253 0.0 0.0 0.00 0.14 0.14 96 1013.0
20260505063652 44 254 0.0 0.0 0.00 0.14 0.14 96 1012.9
20260505063148 44 242 0.0 0.0 0.05 0.14 0.14 96 1012.9
20260505062644 44 248 0.0 0.0 0.05 0.14 0.14 96 1013.0
20260505062142 44 241 0.0 0.0 0.00 0.13 0.13 95 1012.9
20260505061639 44 250 0.0 0.0 0.07 0.13 0.13 95 1013.0
20260505061137 45 177 0.0 0.0 0.07 0.13 0.13 95 1013.0
20260505060634 45 253 0.0 0.0 0.05 0.12 0.12 95 1012.6
20260505060130 44 257 0.0 0.0 0.05 0.12 0.12 95 1012.9
20260505055626 45 258 0.0 0.0 0.07 0.11 0.11 95 1012.9
20260505055123 45 259 0.0 0.0 0.07 0.11 0.11 94 1013.0
20260505054620 45 263 0.0 0.0 0.05 0.10 0.10 94 1013.1
20260505054118 45 259 0.0 0.0 0.05 0.10 0.10 94 1013.2
20260505053615 45 259 0.0 0.0 0.00 0.09 0.09 93 1013.8
20260505053111 45 263 0.0 0.0 0.07 0.09 0.09 92 1013.8
20260505052608 45 264 1.0 1.0 0.07 0.09 0.09 92 1013.8
20260505052106 45 255 1.0 1.0 0.00 0.08 0.08 91 1013.7
20260505051603 46 187 0.0 0.0 0.00 0.08 0.08 90 1014.0
20260505051101 46 199 0.0 0.0 0.00 0.08 0.08 89 1013.7
20260505050558 46 182 0.0 0.0 0.07 0.08 0.08 89 1013.8
20260505041526 46 140 3.0 3.0 0.00 0.06 0.06 83 1013.2
20260505041024 46 187 1.0 1.0 0.00 0.06 0.06 86 1013.0
20260505040521 46 152 3.0 3.0 0.00 0.06 0.06 84 1013.2
20260505040018 46 213 0.0 0.0 0.00 0.06 0.06 84 1013.5
20260505035514 46 213 0.0 0.0 0.00 0.06 0.06 83 1013.2
20260505035011 46 214 1.0 2.0 0.00 0.06 0.06 82 1013.5
20260505034507 46 132 0.0 0.0 0.00 0.06 0.06 82 1013.2
20260505034005 46 171 0.0 0.0 0.00 0.06 0.06 83 1013.1
20260505033501 46 200 2.0 2.0 0.00 0.06 0.06 83 1013.2
20260505033000 46 178 3.0 3.0 0.00 0.06 0.06 84 1013.3
20260505032457 46 154 2.0 3.0 0.00 0.06 0.06 84 1012.8
20260505031953 46 151 3.0 5.0 0.00 0.06 0.06 85 1013.0
20260505031450 46 179 3.0 5.0 0.00 0.06 0.06 87 1013.0
20260505030947 46 138 2.0 3.0 0.00 0.06 0.06 87 1012.9
20260505030443 46 152 1.0 2.0 0.00 0.06 0.06 87 1013.0
20260505025938 47 132 3.0 5.0 0.00 0.06 0.06 87 1012.3
20260505025435 47 135 5.0 6.0 0.00 0.06 0.06 86 1012.2
20260505024934 47 165 7.0 8.0 0.00 0.06 0.06 86 1012.1
20260505024431 47 171 5.0 7.0 0.00 0.06 0.06 88 1012.1
20260505023928 48 148 2.0 2.0 0.00 0.06 0.06 89 1012.1
20260505023425 48 121 1.0 1.0 0.00 0.06 0.06 88 1012.1
20260505022923 48 110 1.0 1.0 0.00 0.06 0.06 86 1012.2
20260505022421 48 129 2.0 2.0 0.00 0.06 0.06 86 1012.1
20260505021917 48 141 1.0 2.0 0.00 0.06 0.06 84 1012.4
20260505021413 49 173 0.0 0.0 0.00 0.06 0.06 83 1012.8
20260505020909 49 172 0.0 1.0 0.07 0.06 0.06 75 1012.8
20260505020405 49 159 1.0 1.0 0.07 0.06 0.06 77 1012.9
20260505015902 49 102 3.0 3.0 0.00 0.05 0.05 78 1012.6
20260505015359 49 141 5.0 6.0 0.00 0.05 0.05 76 1012.8
20260505014856 49 188 3.0 5.0 0.00 0.05 0.05 75 1012.5
20260505014353 49 140 2.0 2.0 0.00 0.05 0.05 83 1012.6
20260505013850 49 182 0.0 1.0 0.00 0.05 0.05 83 1012.4
20260505013347 49 142 2.0 2.0 0.00 0.05 0.05 78 1012.5
20260505012845 49 186 1.0 2.0 0.00 0.05 0.05 77 1012.6
20260505012343 50 249 0.0 0.0 0.00 0.05 0.05 77 1012.5
20260505011839 50 335 0.0 1.0 0.00 0.05 0.05 75 1013.0
20260505011336 50 252 1.0 1.0 0.00 0.05 0.05 74 1012.9
20260505010832 50 330 2.0 2.0 0.00 0.05 0.05 73 1012.6
20260505010327 50 8 1.0 2.0 0.00 0.05 0.05 74 1012.4
20260505005824 51 321 0.0 1.0 0.00 0.05 0.05 76 1012.4